Temperature
21 21 21 21 18 17 19 19 19 19 19 19 19 19 18 18 18 17 18 18 18 18 17 17 17 17 17 17 17 17 17 17 17 17 17 17 17 17 17 17 17 17 17 17 17 17 17 17 17
21 21 21 20 17 17 19 19 19 19 20 20 19 19 18 18 18 18 18 18 18 17 17 17 17 17 17 17 17 17 17 17 17 17 17 17 17 17 17 17 17 17 17 17 17 17 17 17 17
21 21 21 17 17 18 19 20 19 20 20 20 19 19 18 18 18 18 18 18 18 17 17 17 17 17 17 17 17 17 17 17 17 17 17 17 17 17 17 17 17 17 17 17 17 17 17 17 17
21 21 20 17 19 19 19 20 19 20 20 20 19 18 18 18 18 18 18 18 18 17 17 17 17 17 17 17 17 17 17 17 17 17 17 17 17 17 17 17 17 17 17 17 17 17 17 17 17
21 21 18 18 19 19 19 20 20 19 19 19 19 18 18 18 18 18 18 18 18 18 17 17 17 17 17 17 17 17 17 17 17 17 16 16 17 17 17 17 17 17 17 17 17 17 17 17 17
21 18 17 18 19 20 20 21 20 19 19 19 19 18 18 18 18 18 18 18 18 18 17 17 17 17 17 17 17 17 17 17 16 16 16 16 17 16 16 16 16 16 16 16 16 16 16 16 16
20 17 18 19 19 20 21 21 20 19 19 19 19 18 18 18 18 18 18 18 18 17 17 17 17 17 17 17 17 16 16 16 16 16 16 16 16 16 16 16 16 16 16 16 16 16 16 16 16
21 17 18 18 19 20 21 21 20 20 19 20 20 18 18 19 18 18 18 18 17 17 17 17 17 17 17 17 17 16 16 16 16 16 16 16 16 16 16 16 16 16 16 16 16 16 16 16 16
21 17 18 19 19 20 21 21 21 20 20 20 20 20 19 19 18 18 18 18 17 17 17 17 17 17 17 17 17 16 16 16 16 16 16 16 16 16 16 16 16 16 16 16 16 16 16 16 16
20 18 19 20 20 20 21 21 21 20 19 19 19 19 19 19 19 18 18 18 18 18 17 17 17 17 17 17 17 17 16 16 16 16 16 16 16 16 16 16 16 16 16 16 16 16 16 16 15
20 19 20 20 21 21 21 21 21 20 19 19 20 20 19 19 19 19 18 18 18 18 17 17 17 17 17 17 17 17 16 16 16 16 16 16 16 16 16 16 16 16 16 16 16 15 15 15 15
20 20 21 21 22 21 21 21 20 20 21 21 21 20 20 19 19 19 19 18 18 18 18 17 17 17 17 17 17 17 16 16 16 16 16 16 16 16 16 16 16 15 15 15 15 15 15 15 15
20 21 21 22 22 22 21 21 20 20 21 21 20 20 20 20 19 19 19 19 18 18 18 17 17 17 17 17 17 17 16 16 16 16 16 16 16 16 16 16 15 15 15 15 15 15 15 15 15
21 21 21 21 21 21 21 20 20 21 21 21 20 20 20 20 20 19 19 19 18 18 18 18 17 17 17 17 17 16 16 16 16 16 16 16 16 16 16 15 15 15 15 15 15 15 15 15 15
21 20 20 21 21 21 21 20 19 21 20 20 20 20 20 20 20 19 19 19 19 18 18 18 18 17 17 17 17 16 16 16 16 16 16 16 16 16 16 15 15 15 15 15 15 15 15 15 14
20 19 19 20 20 21 20 19 19 20 20 20 20 20 20 20 20 20 19 19 19 18 18 18 18 17 17 17 17 17 16 16 16 16 16 16 16 16 15 15 15 15 15 15 15 15 14 14 14
19 19 19 20 20 20 20 19 19 20 20 19 19 20 20 20 20 20 19 19 19 19 18 18 18 17 17 17 17 17 16 16 16 16 16 16 16 15 15 15 15 15 15 15 14 14 14 14 14
19 19 19 19 20 19 19 18 18 19 19 19 19 19 19 20 20 20 19 19 19 19 18 18 18 17 17 17 17 17 16 16 16 16 16 16 16 15 15 15 15 15 15 14 14 14 14 14 14
19 19 19 19 20 19 18 18 18 18 18 18 18 19 19 20 20 20 19 19 19 19 18 18 18 17 17 17 17 17 16 16 16 16 16 16 16 15 15 15 15 15 14 14 14 14 14 14 14
20 19 19 19 19 19 18 18 18 18 18 18 18 19 19 19 20 19 19 19 19 19 18 18 18 17 17 17 17 17 16 16 16 16 16 15 15 15 15 15 15 14 14 14 14 14 14 14 13
20 19 19 19 19 19 19 18 18 18 18 18 19 19 19 19 19 19 19 19 19 19 18 18 18 17 17 17 16 16 16 16 16 16 15 15 15 15 15 15 14 14 14 14 14 14 14 14 13
19 20 20 19 18 17 18 17 17 17 17 17 18 18 19 19 19 19 19 19 19 19 18 18 18 17 17 16 16 16 16 16 16 16 15 15 15 15 15 14 14 14 14 14 14 14 14 13 13
20 19 19 19 18 17 17 17 17 16 17 17 17 18 18 19 19 19 19 19 19 19 18 18 17 17 17 16 16 16 16 16 16 15 15 15 15 15 15 14 14 14 14 14 14 14 13 13 13
19 18 17 16 16 17 18 17 17 16 17 17 17 17 18 18 19 19 19 19 19 18 18 18 17 17 17 16 16 16 16 16 15 15 15 15 15 15 14 14 14 14 14 14 14 13 13 13 13
18 17 16 17 16 16 17 17 16 17 17 17 16 17 18 18 18 19 19 18 18 18 18 17 17 17 16 16 16 16 16 15 15 15 15 15 15 15 14 14 14 14 14 14 13 13 13 13 13
18 17 16 17 16 16 16 16 17 17 17 17 17 17 18 18 18 18 18 18 18 18 17 17 17 17 16 16 16 16 15 15 15 15 15 15 15 14 14 14 14 14 14 13 13 13 13 13 13
18 16 16 15 16 16 16 16 17 17 16 16 17 17 17 18 18 18 18 18 18 18 17 17 17 17 16 16 16 16 15 15 15 15 15 15 14 14 14 14 14 13 13 13 13 13 13 13 13
18 16 14 15 16 16 16 16 16 16 16 16 16 16 17 18 18 18 18 18 18 17 17 17 17 16 16 16 16 16 15 15 15 15 15 14 14 14 14 14 14 13 13 13 13 13 13 13 13
17 16 15 14 14 15 16 16 16 16 16 15 15 16 17 18 18 18 18 17 17 17 17 17 16 16 16 16 16 15 15 15 15 15 15 14 14 14 14 14 14 13 13 13 13 13 13 13 12
18 17 15 16 15 14 14 15 16 15 15 15 16 17 17 17 17 17 17 17 17 17 16 16 16 16 16 15 15 15 15 15 15 14 14 14 14 14 14 14 13 13 13 13 13 13 13 12 12
Wind_Speed
3 5 4 4 6 6 3 2 1 2 2 2 4 6 6 4 3 1 2 1 1 0 1 2 3 4 5 5 5 6 6 6 7 7 7 7 7 7 6 7 7 7 7 8 8 8 9 9 9
2 2 4 5 5 4 3 2 1 1 4 4 4 5 5 4 2 2 0 1 1 1 1 2 4 4 5 5 5 6 6 7 7 7 7 7 7 7 6 7 7 6 7 8 8 8 8 9 9
2 3 4 5 4 3 1 1 2 3 4 2 4 4 4 2 1 1 1 2 2 2 2 3 4 4 5 4 5 6 6 7 7 7 8 7 7 7 7 7 7 6 7 8 8 9 9 9 9
3 5 5 6 4 1 2 2 3 6 3 4 4 4 3 1 1 2 3 4 3 1 2 3 4 4 5 5 5 6 7 7 7 7 7 7 7 7 6 7 7 7 8 8 9 9 9 10 10
4 4 6 4 3 2 1 1 3 4 3 3 4 4 2 3 3 5 4 3 3 1 2 2 3 4 5 5 6 6 7 7 7 7 7 8 8 8 8 8 8 7 8 8 9 9 9 9 9
4 5 5 3 2 3 2 1 3 4 4 3 4 4 1 1 3 4 3 3 2 2 2 3 3 4 4 5 6 7 8 8 8 8 9 8 8 8 8 8 8 7 8 9 9 10 10 9 9
4 5 4 3 1 2 1 2 4 5 4 3 5 4 0 1 2 4 3 3 2 2 3 3 4 4 4 5 6 7 8 8 9 9 9 9 9 9 9 8 8 8 9 9 9 10 10 9 10
5 5 3 2 2 0 0 2 3 4 3 3 4 5 4 4 4 5 4 4 3 3 2 2 3 4 4 4 5 6 6 7 8 9 9 9 9 10 9 9 9 9 9 9 10 10 10 10 11
4 5 2 3 3 2 1 2 2 2 4 2 2 4 3 6 7 6 4 3 2 1 1 1 2 2 3 4 5 6 7 7 7 8 8 9 8 9 8 9 10 10 10 10 10 10 11 11 11
4 3 4 4 4 3 1 2 3 3 3 2 2 3 5 8 7 6 4 3 2 1 1 0 0 1 2 3 5 5 5 6 6 6 6 7 7 7 8 10 11 10 11 11 12 12 12 11 9
3 4 2 1 3 3 2 1 2 6 3 5 6 6 7 7 6 6 5 4 4 2 2 1 1 1 2 2 3 3 4 4 5 5 5 5 6 6 7 7 8 9 10 9 10 11 9 9 8
3 1 2 1 2 3 3 3 3 4 6 6 8 9 8 8 7 7 6 5 3 2 2 2 1 1 1 2 2 2 2 2 3 3 4 4 4 4 5 5 6 7 7 7 7 7 8 9 9
2 0 0 1 1 2 3 2 3 2 2 4 7 7 8 8 7 5 5 5 4 3 3 2 2 2 2 2 1 2 2 2 2 3 4 4 3 3 3 4 5 6 6 6 5 5 6 6 7
2 1 1 1 1 1 3 1 2 3 3 6 7 7 7 8 7 4 4 4 5 5 4 3 3 3 3 2 1 1 2 2 2 2 3 4 5 3 3 3 3 4 5 6 5 5 5 4 5
2 2 4 2 0 1 4 1 3 4 5 6 6 6 6 6 5 6 6 6 6 5 4 3 3 3 3 2 2 2 2 3 2 2 3 4 5 5 3 3 3 3 5 6 5 5 5 4 4
4 3 2 4 0 2 4 3 5 3 6 6 5 5 5 5 6 6 6 5 5 5 4 3 3 4 3 3 2 2 2 3 2 2 3 3 4 5 4 3 2 3 5 4 3 3 4 4 4
3 0 2 4 1 2 4 4 5 3 6 6 5 5 5 5 4 5 5 6 6 6 5 4 3 4 3 3 2 3 3 2 2 2 3 3 4 5 4 3 2 4 4 3 3 3 3 3 3
3 2 3 4 2 2 3 5 5 3 6 6 5 5 5 5 7 5 4 5 5 5 5 4 3 3 3 3 3 3 3 2 2 2 2 3 4 5 5 3 3 3 3 3 3 3 3 2 2
3 3 3 4 2 2 4 6 6 4 5 6 5 5 6 7 5 2 3 4 4 4 5 4 4 3 3 2 2 2 1 1 1 1 2 3 3 4 4 3 3 3 3 2 3 3 3 2 2
3 2 2 3 1 2 3 5 5 4 7 7 8 8 7 6 3 2 3 4 5 5 5 4 4 4 4 2 2 2 2 1 1 1 2 3 3 4 4 4 3 2 3 3 2 3 2 1 1
2 4 4 3 2 2 2 5 4 3 3 4 5 6 6 7 6 4 4 5 5 5 5 6 5 4 4 3 3 3 3 3 2 2 1 1 2 3 4 4 3 2 2 2 2 3 3 2 0
4 3 4 2 1 3 1 3 6 3 3 2 4 5 6 6 5 5 5 5 6 5 5 5 5 4 4 4 4 4 3 2 1 1 0 1 1 2 3 3 3 3 2 2 2 2 2 3 1
4 1 2 1 3 1 1 1 7 2 3 4 5 5 5 5 6 6 6 7 5 4 5 4 4 4 4 4 5 4 3 2 1 1 1 1 1 1 1 2 2 2 2 2 2 2 2 2 3
4 5 5 5 4 1 3 3 5 3 5 4 3 4 4 4 5 5 4 4 4 4 4 4 5 3 3 4 4 5 4 3 2 1 1 0 1 1 0 1 2 2 2 2 2 2 3 2 3
5 5 4 4 3 4 2 2 6 5 4 4 4 4 3 3 3 4 4 4 4 5 4 4 5 4 3 4 4 4 4 4 4 3 3 2 1 1 2 1 1 2 2 2 2 2 2 3 3
3 7 6 3 3 4 2 3 5 4 3 2 1 1 1 3 3 4 4 4 5 5 5 5 5 4 4 4 4 4 4 4 3 4 3 3 3 3 2 2 2 2 2 2 2 2 3 2 3
5 3 5 6 2 2 4 5 5 4 5 4 3 2 1 2 2 3 3 3 4 5 5 6 6 5 5 4 4 4 4 4 4 3 3 2 2 2 2 2 2 2 2 2 2 2 2 2 2
4 7 5 4 3 3 5 3 4 4 4 3 2 1 2 1 1 2 2 3 3 4 4 3 4 4 4 4 4 3 4 4 4 3 3 3 2 2 2 2 2 2 2 2 2 2 2 3 2
3 4 4 4 4 5 3 5 3 5 4 3 3 2 2 2 2 2 2 3 2 2 3 3 2 2 3 3 3 3 3 3 3 3 4 3 2 2 2 3 2 2 2 2 2 2 3 3 2
3 5 6 4 3 4 3 5 3 3 3 2 2 2 1 1 1 1 2 2 2 2 2 2 2 3 3 3 3 3 3 3 3 4 3 3 3 3 3 3 2 2 2 2 3 2 3 3 2
Wind_Direction
87 91 86 61 56 52 44 358 36 67 62 42 64 81 93 82 90 130 278 165 159 32 7 38 56 65 69 72 71 70 71 72 73 76 79 76 73 75 79 85 90 91 90 87 87 89 91 89 84
81 86 58 60 77 69 0 346 67 114 141 137 79 77 75 61 65 112 27 184 134 98 62 54 64 66 71 72 71 71 75 73 73 74 75 74 72 71 75 81 83 84 90 90 91 96 93 89 85
80 56 74 66 83 129 147 318 128 98 110 108 78 62 84 92 95 168 205 143 108 72 43 41 61 63 67 72 73 73 75 76 76 72 69 67 66 66 69 77 81 85 90 91 93 94 88 85 81
75 47 55 67 73 190 185 175 143 116 84 55 92 69 57 21 164 168 133 121 111 71 42 39 58 67 68 77 84 83 78 76 75 72 68 63 63 62 61 70 82 85 87 88 88 89 82 79 76
62 73 60 54 34 347 336 150 132 112 91 65 89 93 46 357 83 112 120 124 125 96 52 49 63 69 70 79 86 82 80 76 75 72 68 63 60 54 54 66 77 77 80 82 83 83 80 77 74
55 66 79 75 14 356 7 68 109 93 97 100 105 110 50 357 111 130 131 128 124 108 73 50 59 71 75 82 87 82 77 73 71 69 67 63 58 53 64 75 82 80 79 78 77 79 77 77 77
93 84 106 120 69 20 46 81 113 116 117 145 138 117 130 254 176 133 123 99 76 71 65 43 38 48 61 72 84 84 78 73 70 67 65 59 56 65 75 80 84 82 80 77 77 78 76 75 76
113 95 81 77 118 328 79 80 108 124 138 136 127 138 189 209 151 112 91 77 65 51 48 40 37 42 47 50 67 78 78 73 68 65 60 57 52 60 66 73 78 75 72 73 74 71 73 73 73
87 77 123 188 174 194 147 101 79 85 103 97 132 165 176 138 126 112 90 62 51 56 27 25 25 35 46 49 54 60 62 62 61 59 56 52 42 44 51 62 68 67 67 69 71 67 70 70 67
83 118 202 204 181 175 148 128 140 100 91 82 73 82 114 128 137 143 146 164 191 218 249 250 349 25 48 60 63 61 56 54 54 54 50 51 45 40 48 53 62 65 68 68 66 64 63 63 59
108 155 196 183 173 152 133 115 123 128 162 191 175 160 141 142 153 166 174 186 205 211 221 210 194 79 74 71 73 71 65 56 54 57 59 59 50 46 48 49 51 55 60 61 58 56 55 58 58
107 173 170 177 155 138 153 139 121 166 210 197 173 158 153 159 176 184 186 193 187 184 217 215 165 119 100 95 84 87 78 67 56 54 64 74 61 49 49 52 54 58 62 64 61 63 61 60 59
107 190 132 149 107 130 122 136 158 223 209 126 136 143 161 176 189 195 192 186 178 191 211 206 176 165 147 114 103 95 90 88 76 66 71 92 85 64 57 56 61 64 68 71 67 65 63 59 56
171 106 23 21 55 94 130 133 131 237 140 132 147 165 182 190 193 188 189 190 191 194 203 197 183 175 150 139 130 114 106 104 92 82 87 100 104 96 77 67 62 68 77 78 78 71 68 61 60
83 59 1 341 75 162 118 14 239 219 145 158 173 184 195 207 199 197 201 197 195 192 191 184 178 152 146 147 142 121 117 111 99 95 102 110 112 108 98 83 69 75 87 85 81 72 68 66 61
66 59 333 296 154 133 126 249 266 193 160 184 196 202 210 221 218 216 207 196 185 177 174 178 166 144 145 144 131 117 115 111 101 100 102 107 116 117 108 94 82 89 89 88 84 72 67 59 57
37 53 255 291 250 139 151 234 265 186 171 195 210 217 220 230 238 231 212 193 181 175 166 162 149 142 143 128 106 97 93 93 100 99 98 105 115 124 119 104 100 101 90 77 85 71 83 77 61
232 227 247 257 264 138 190 242 257 205 187 205 213 219 222 227 235 227 208 191 175 163 154 158 148 131 119 97 83 73 65 59 68 81 95 114 115 124 119 111 106 105 92 77 81 84 72 81 71
189 197 247 267 253 164 225 253 261 222 205 220 225 223 224 233 243 215 189 171 153 148 152 161 153 143 127 117 115 109 101 61 53 74 94 113 116 122 121 116 112 110 112 118 117 110 91 70 67
187 204 254 294 304 174 255 273 265 221 213 215 217 220 218 223 233 202 177 163 164 167 167 166 166 157 154 149 137 127 122 106 89 50 64 92 112 119 123 120 122 116 115 110 121 131 121 103 79
215 201 218 230 359 34 17 320 293 277 236 224 221 219 215 209 207 202 185 184 175 178 181 179 179 167 155 132 104 85 67 53 43 34 23 26 104 120 120 131 133 134 136 149 159 154 144 158 71
242 230 195 172 102 294 65 288 287 290 309 267 249 231 223 216 204 195 187 188 192 192 180 176 171 160 149 141 137 135 143 163 204 194 211 20 78 117 128 142 149 148 152 166 180 164 160 152 176
209 74 113 134 148 348 354 207 290 335 297 274 260 240 230 218 202 198 196 196 191 176 168 166 152 148 148 151 150 146 150 171 148 114 99 43 18 54 122 150 151 154 165 178 182 158 168 168 173
131 72 56 50 75 303 251 191 286 270 254 273 268 243 224 213 203 201 196 181 174 162 156 152 149 157 155 155 155 161 165 163 149 155 161 263 324 322 315 168 165 165 179 191 197 188 186 186 178
85 86 30 3 8 261 272 201 257 271 259 235 246 247 225 194 184 189 181 178 177 169 167 163 157 166 164 165 172 178 180 178 182 189 196 203 227 249 259 222 200 194 201 198 190 186 198 193 186
149 139 154 199 236 285 327 241 257 290 301 276 227 211 175 165 180 184 183 182 179 173 170 165 167 176 176 179 189 187 185 187 194 196 198 207 218 228 231 214 204 200 192 190 176 180 197 188 191
132 154 163 140 165 277 288 291 312 359 7 17 37 64 133 188 183 178 179 174 173 173 181 181 179 183 187 191 192 194 196 194 197 201 202 214 231 230 212 203 202 200 191 177 168 181 190 170 183
135 141 105 126 158 253 293 287 273 301 313 333 348 325 277 254 203 176 177 178 176 179 179 167 171 190 193 188 193 203 212 208 199 190 204 220 232 236 206 207 204 200 194 167 156 169 174 166 187
103 108 116 124 154 167 248 272 233 234 245 250 270 273 265 239 211 194 185 181 167 158 162 165 174 193 201 201 200 201 216 209 201 202 213 216 221 220 220 222 212 205 199 179 165 174 164 173 188
168 164 148 157 212 182 184 260 282 251 248 224 259 295 302 262 203 167 168 156 150 158 180 188 192 208 217 209 194 206 212 203 206 217 225 219 222 222 219 212 206 209 203 185 180 181 171 173 188
Height
1493 1494 1495 1498 1502 1514 1517 1513 1509 1509 1509 1509 1509 1509 1511 1514 1517 1522 1518 1514 1514 1513 1511 1511 1510 1509 1508 1508 1508 1508 1508 1508 1507 1507 1508 1508 1508 1508 1509 1509 1509 1510 1510 1511 1511 1511 1512 1512 1512
1495 1496 1498 1498 1510 1524 1520 1512 1510 1509 1509 1510 1510 1511 1512 1514 1515 1516 1515 1515 1514 1513 1513 1512 1511 1510 1510 1509 1509 1509 1509 1509 1508 1508 1508 1508 1509 1509 1509 1510 1510 1510 1511 1511 1512 1512 1513 1513 1513
1496 1497 1499 1503 1515 1522 1518 1511 1509 1509 1510 1510 1512 1513 1514 1516 1516 1516 1516 1516 1515 1514 1514 1513 1512 1511 1511 1510 1510 1510 1510 1510 1509 1509 1509 1509 1509 1510 1510 1510 1510 1511 1511 1512 1512 1513 1513 1514 1514
1498 1499 1501 1510 1516 1514 1511 1510 1509 1509 1511 1511 1512 1515 1516 1518 1517 1517 1517 1517 1516 1515 1515 1514 1513 1513 1512 1512 1511 1511 1511 1511 1510 1510 1510 1510 1510 1510 1510 1510 1511 1511 1512 1513 1513 1514 1514 1514 1515
1499 1500 1509 1517 1515 1511 1509 1509 1509 1510 1512 1513 1513 1516 1517 1519 1518 1518 1518 1517 1517 1517 1516 1515 1515 1514 1514 1513 1513 1513 1512 1512 1512 1512 1511 1511 1511 1510 1510 1510 1511 1512 1513 1514 1514 1515 1515 1515 1515
1500 1503 1518 1523 1517 1512 1510 1510 1510 1511 1513 1514 1515 1517 1519 1519 1519 1519 1519 1519 1518 1518 1518 1517 1516 1516 1516 1515 1515 1515 1514 1514 1514 1513 1513 1512 1511 1510 1510 1510 1511 1513 1514 1515 1515 1515 1516 1516 1516
1502 1509 1518 1519 1518 1514 1511 1511 1511 1512 1513 1515 1515 1517 1519 1519 1520 1520 1520 1520 1520 1520 1519 1519 1518 1518 1517 1517 1517 1517 1516 1516 1515 1515 1514 1513 1512 1511 1511 1512 1513 1514 1515 1516 1516 1517 1517 1517 1517
1502 1509 1517 1519 1518 1516 1512 1511 1512 1513 1514 1515 1516 1517 1519 1520 1520 1521 1521 1521 1521 1521 1521 1520 1520 1520 1519 1519 1519 1519 1518 1518 1517 1517 1516 1515 1514 1513 1513 1514 1515 1515 1516 1517 1517 1517 1518 1518 1518
1504 1514 1521 1518 1517 1514 1511 1512 1513 1514 1514 1516 1516 1517 1518 1519 1520 1521 1521 1522 1522 1522 1522 1522 1521 1521 1521 1521 1521 1520 1520 1520 1519 1519 1518 1517 1516 1516 1516 1516 1517 1517 1518 1518 1518 1519 1519 1519 1519
1505 1517 1515 1511 1511 1511 1511 1512 1513 1514 1515 1516 1517 1518 1518 1519 1520 1521 1521 1522 1522 1522 1523 1523 1523 1522 1522 1522 1522 1522 1522 1522 1522 1521 1521 1520 1519 1518 1519 1519 1519 1519 1520 1520 1520 1520 1520 1520 1520
1505 1511 1509 1509 1509 1510 1511 1512 1513 1514 1516 1516 1516 1517 1518 1520 1521 1521 1522 1523 1523 1524 1523 1524 1524 1524 1524 1524 1524 1524 1524 1524 1524 1523 1523 1522 1522 1521 1521 1520 1521 1521 1521 1521 1521 1521 1521 1521 1522
1507 1508 1508 1508 1509 1510 1511 1512 1513 1514 1514 1514 1516 1517 1518 1519 1520 1521 1522 1523 1524 1524 1525 1525 1525 1525 1525 1525 1526 1526 1526 1525 1525 1525 1525 1525 1524 1524 1523 1523 1523 1523 1523 1523 1523 1523 1523 1523 1523
1508 1508 1508 1508 1509 1510 1511 1512 1513 1513 1514 1515 1516 1517 1518 1519 1521 1522 1523 1524 1524 1525 1525 1526 1526 1526 1527 1527 1527 1527 1527 1527 1527 1527 1527 1526 1526 1526 1525 1525 1525 1525 1525 1524 1524 1524 1524 1524 1524
1508 1508 1509 1509 1509 1510 1511 1513 1513 1513 1514 1515 1516 1517 1518 1519 1521 1522 1523 1524 1524 1525 1526 1526 1527 1527 1528 1528 1528 1528 1528 1528 1528 1528 1528 1528 1528 1527 1527 1527 1527 1526 1526 1526 1526 1526 1526 1526 1526
1508 1510 1510 1509 1509 1510 1512 1515 1513 1512 1514 1514 1516 1517 1518 1519 1520 1521 1522 1523 1524 1525 1526 1527 1527 1528 1528 1529 1529 1529 1529 1530 1530 1530 1529 1529 1529 1529 1528 1528 1528 1528 1528 1527 1527 1527 1527 1527 1527
1510 1515 1519 1512 1510 1510 1515 1521 1512 1512 1513 1514 1515 1516 1517 1518 1519 1520 1522 1523 1524 1525 1526 1527 1528 1528 1529 1529 1530 1530 1530 1530 1530 1530 1530 1530 1530 1530 1529 1529 1529 1529 1528 1528 1528 1528 1528 1528 1527
1517 1523 1521 1515 1510 1510 1514 1518 1511 1511 1512 1513 1514 1515 1516 1517 1518 1519 1521 1522 1524 1525 1526 1527 1528 1528 1529 1530 1530 1530 1531 1531 1531 1531 1531 1531 1530 1530 1530 1530 1530 1529 1529 1529 1529 1529 1528 1528 1528
1523 1522 1520 1518 1511 1512 1515 1515 1511 1510 1511 1512 1513 1514 1515 1516 1517 1518 1520 1521 1523 1525 1526 1527 1528 1528 1529 1530 1530 1531 1531 1531 1531 1531 1531 1531 1531 1530 1530 1530 1530 1530 1530 1529 1529 1529 1529 1529 1529
1514 1518 1519 1515 1510 1513 1515 1514 1511 1509 1510 1511 1511 1512 1513 1514 1515 1517 1518 1520 1522 1524 1525 1526 1527 1528 1529 1529 1530 1530 1531 1531 1531 1531 1531 1531 1531 1531 1530 1530 1530 1530 1530 1530 1529 1529 1529 1529 1529
1513 1517 1517 1514 1509 1512 1515 1514 1509 1508 1508 1508 1509 1510 1511 1512 1514 1515 1517 1519 1521 1522 1524 1525 1526 1527 1528 1529 1529 1530 1530 1531 1531 1531 1531 1531 1531 1530 1530 1530 1530 1530 1530 1529 1529 1529 1529 1529 1529
1512 1515 1515 1515 1512 1512 1515 1517 1511 1507 1506 1507 1507 1508 1509 1510 1512 1514 1515 1517 1519 1521 1523 1524 1525 1526 1527 1528 1529 1530 1530 1530 1530 1531 1531 1531 1530 1530 1530 1529 1529 1529 1529 1529 1529 1529 1529 1529 1529
1515 1508 1509 1513 1519 1524 1520 1531 1515 1509 1507 1506 1506 1506 1507 1508 1510 1512 1514 1516 1518 1520 1522 1523 1524 1526 1527 1527 1528 1528 1529 1529 1530 1530 1530 1530 1530 1530 1529 1529 1529 1528 1528 1528 1528 1528 1528 1528 1528
1508 1506 1509 1512 1518 1525 1523 1529 1521 1511 1509 1506 1505 1505 1505 1506 1508 1510 1512 1514 1517 1519 1521 1522 1524 1525 1526 1527 1527 1527 1528 1528 1529 1529 1529 1529 1529 1529 1528 1528 1528 1527 1527 1527 1527 1527 1527 1527 1527
1504 1510 1514 1520 1526 1534 1525 1529 1526 1516 1509 1505 1503 1503 1503 1505 1507 1509 1511 1514 1515 1517 1519 1521 1523 1524 1525 1526 1526 1527 1527 1527 1527 1528 1528 1528 1528 1528 1528 1527 1527 1526 1526 1525 1525 1525 1525 1526 1526
1507 1520 1535 1536 1542 1538 1524 1526 1523 1508 1504 1503 1502 1501 1502 1503 1505 1507 1510 1512 1513 1515 1518 1520 1521 1523 1524 1525 1525 1526 1526 1526 1526 1526 1527 1526 1526 1526 1526 1526 1525 1525 1524 1524 1523 1523 1523 1524 1524
1509 1517 1535 1543 1544 1538 1527 1527 1516 1505 1502 1501 1500 1500 1500 1502 1504 1506 1508 1510 1511 1513 1516 1518 1520 1521 1522 1523 1524 1524 1525 1525 1525 1525 1525 1525 1525 1525 1525 1524 1524 1523 1522 1522 1521 1521 1521 1522 1523
1510 1516 1517 1531 1534 1538 1532 1522 1511 1504 1502 1501 1500 1500 1500 1501 1503 1505 1506 1508 1510 1511 1513 1516 1518 1519 1520 1521 1522 1523 1523 1523 1524 1524 1524 1524 1523 1523 1523 1522 1522 1521 1520 1519 1519 1519 1519 1520 1521
1504 1512 1523 1530 1539 1543 1533 1527 1522 1510 1506 1503 1502 1501 1501 1501 1502 1504 1505 1507 1508 1510 1512 1514 1516 1517 1518 1519 1520 1521 1521 1522 1522 1522 1522 1522 1522 1521 1521 1520 1520 1519 1518 1518 1517 1517 1518 1518 1519
1508 1513 1519 1528 1531 1539 1540 1531 1509 1507 1504 1503 1501 1501 1501 1501 1502 1503 1504 1505 1507 1509 1510 1512 1514 1515 1516 1517 1518 1518 1519 1519 1520 1520 1520 1520 1519 1519 1519 1518 1518 1517 1516 1516 1516 1516 1516 1516 1517
1502 1507 1516 1525 1530 1533 1536 1529 1504 1503 1502 1501 1501 1500 1500 1501 1502 1502 1503 1504 1506 1507 1509 1510 1512 1513 1514 1515 1515 1516 1516 1517 1517 1517 1517 1517 1517 1516 1516 1515 1515 1515 1514 1514 1514 1514 1514 1514 1514